This is the latest recevied weather packets stored in our database for station/object N7NIP. If no packets are shown the sender has not sent any weather packets the latest 10 day(s).
| Time | Temp. | Humidity | Pressure | Rain* | Wind** | Luminosity | Snow |
|---|---|---|---|---|---|---|---|
| 1778027837 | 18.89° C | 66% | 1029.1 hPa | 0 mm | - | 386 W/m² | - |
| 1778027534 | 18.33° C | 66% | 1029.4 hPa | 0 mm | - | 427 W/m² | - |
| 1778027230 | 17.78° C | 71% | 1029.4 hPa | 0 mm | - | 358 W/m² | - |
| 1778026926 | 17.22° C | 70% | 1029.4 hPa | 0 mm | - | 472 W/m² | - |
| 1778026622 | 18.33° C | 67% | 1029.5 hPa | 0 mm | - | 318 W/m² | - |
| 1778026320 | 17.78° C | 68% | 1029.3 hPa | 0 mm | - | 516 W/m² | - |
| 1778026016 | 17.78° C | 69% | 1029.4 hPa | 0 mm | - | 550 W/m² | - |
| 1778025714 | 16.67° C | 72% | 1029.6 hPa | 0 mm | - | 386 W/m² | - |
| 1778025411 | 16.67° C | 73% | 1029.6 hPa | 0 mm | - | 314 W/m² | - |
| 1778025109 | 16.11° C | 74% | 1029.8 hPa | 0 mm | - | 342 W/m² | - |
| 1778024805 | 16.11° C | 73% | 1029.7 hPa | 0 mm | - | 296 W/m² | - |
| 1778024502 | 16.11° C | 75% | 1029.8 hPa | 0 mm | - | 334 W/m² | - |
| 1778024199 | 16.11° C | 74% | 1030 hPa | 0 mm | - | 265 W/m² | - |
| 1778023897 | 16.11° C | 76% | 1029.8 hPa | 0 mm | - | 217 W/m² | - |
| 1778023594 | 15.56° C | 75% | 1030 hPa | 0 mm | - | 211 W/m² | - |
| 1778023292 | 15.56° C | 76% | 1029.8 hPa | 0 mm | - | 208 W/m² | - |
| 1778022988 | 16.11° C | 76% | 1030.1 hPa | 0 mm | - | 198 W/m² | - |
| 1778022687 | 15.56° C | 76% | 1030 hPa | 0 mm | - | 200 W/m² | - |
| 1778022385 | 15.56° C | 77% | 1030 hPa | 0 mm | - | 208 W/m² | - |
| 1778022081 | 15.56° C | 76% | 1030.3 hPa | 0 mm | - | 223 W/m² | - |
| 1778021778 | 15.56° C | 77% | 1030.1 hPa | 0 mm | - | 231 W/m² | - |
| 1778021474 | 15.56° C | 75% | 1030.2 hPa | 0 mm | - | 284 W/m² | - |
| 1778021171 | 15.56° C | 77% | 1030.1 hPa | 0 mm | - | 287 W/m² | - |
| 1778020868 | 15.56° C | 76% | 1030.3 hPa | 0 mm | - | 228 W/m² | - |
| 1778020565 | 15.56° C | 76% | 1030.3 hPa | 0 mm | - | 212 W/m² | - |
* Rain latest hour (hover to see other rain measurements)
** Current wind speed in m/s (hover to see current wind gust speed)